Wind_Speed
48 48 48 48 48 48 48 48 47 46 44 41 40 39 36 35 35 35 34 34 36 37 39 42 46 51 58 66 74 79 82 84 83 83 83 80 77 77 75 74 74 74 74
50 50 50 50 51 52 52 50 48 45 43 41 40 41 42 40 38 37 35 34 35 37 39 40 41 43 47 53 61 70 77 81 83 83 85 84 81 79 78 77 75 74 74
54 54 53 53 53 53 52 49 46 43 40 38 38 39 43 45 43 40 38 36 36 38 41 42 42 42 43 46 51 58 67 75 79 81 82 85 83 80 78 78 79 77 75
56 55 54 53 52 52 51 47 43 40 37 34 34 35 40 46 47 45 43 40 39 40 43 44 44 44 44 45 47 50 55 62 69 73 74 79 82 80 77 75 78 80 78
56 54 53 53 53 52 51 48 43 38 34 30 29 31 34 41 47 47 46 44 43 42 43 44 45 46 45 46 48 50 52 55 59 63 64 68 75 76 76 74 74 76 77
55 53 52 53 54 54 52 49 44 39 34 29 25 26 29 35 42 46 47 45 44 43 43 43 43 44 44 43 44 45 48 52 56 60 62 64 68 69 70 71 71 74 75
55 52 52 54 57 57 55 52 47 41 35 30 25 23 25 30 35 41 44 43 43 42 42 41 40 40 39 38 38 39 43 51 54 53 55 57 60 65 67 67 68 70 71
55 52 54 57 59 59 58 56 52 44 36 30 26 22 22 26 31 35 39 40 40 40 40 40 38 36 35 36 38 41 43 50 54 54 56 56 56 56 60 63 64 65 67
54 53 55 57 59 59 60 60 56 46 37 30 25 21 20 23 28 32 36 39 41 42 42 41 39 37 38 41 42 42 45 50 54 56 56 55 55 57 58 59 61 60 62
54 54 56 58 59 60 62 63 59 47 35 28 23 20 19 21 26 31 34 38 42 43 44 44 43 41 41 43 43 42 44 48 53 54 54 53 53 54 56 58 60 59 58
55 56 57 59 60 62 64 65 59 45 31 25 21 18 17 20 24 28 32 36 41 44 45 46 46 46 44 43 43 43 43 45 47 48 49 50 51 52 52 52 53 55 56
56 57 59 61 62 63 66 66 59 44 29 21 18 17 16 18 22 26 29 33 38 43 46 46 47 48 48 46 44 44 44 44 44 44 45 46 48 51 53 53 53 54 56
56 57 60 62 63 65 68 68 61 45 29 20 16 15 15 16 19 23 26 30 35 40 45 46 46 48 50 50 48 46 44 44 45 46 45 44 46 49 50 52 53 54 55
55 57 60 62 63 66 69 70 65 49 33 21 15 13 14 15 16 18 23 27 32 38 43 46 46 47 48 50 50 50 48 46 47 48 48 47 46 47 49 50 52 53 53
56 58 60 62 63 64 68 71 69 56 40 27 17 11 11 13 15 16 18 23 27 33 39 43 46 47 47 47 48 50 51 51 50 51 51 50 50 49 49 49 50 51 51
56 57 60 61 62 63 66 69 71 64 48 33 23 14 10 10 12 14 16 18 22 27 33 40 44 47 48 49 48 48 49 51 54 56 55 54 53 53 52 51 51 51 51
56 58 60 61 62 63 65 67 70 69 59 43 30 21 13 9 9 11 13 14 16 20 25 33 41 46 48 50 50 50 48 48 51 55 58 58 57 56 55 55 55 56 55
57 58 60 62 63 63 64 66 68 69 67 57 43 30 21 14 9 8 10 11 12 15 18 23 32 41 47 50 51 51 50 49 49 50 54 58 59 58 57 56 58 59 58
56 57 60 62 63 63 63 64 65 66 67 65 58 46 34 24 16 11 8 9 10 12 14 17 22 31 41 48 50 52 52 52 50 49 49 51 54 56 57 57 57 59 58
55 57 59 60 61 61 62 62 63 63 64 64 63 59 51 40 30 21 14 10 9 10 12 14 17 21 30 41 48 51 52 53 53 51 49 47 48 50 51 52 53 54 54
54 55 56 58 59 59 61 61 61 61 61 61 61 60 58 55 48 39 30 20 14 10 9 10 12 15 20 28 40 48 51 53 54 53 51 49 47 47 47 48 49 49 49
53 54 54 56 57 58 59 60 60 60 60 59 59 58 58 56 54 52 47 40 31 21 14 9 6 8 12 17 26 38 47 52 53 54 54 53 51 49 48 48 49 49 48
50 52 53 53 55 56 56 57 58 59 59 59 58 57 56 55 55 54 52 49 46 40 31 21 13 7 3 6 13 23 35 46 52 54 55 55 55 54 52 51 50 50 49
47 48 50 51 52 53 54 55 56 57 58 59 59 58 57 55 54 53 52 51 49 47 44 39 32 22 13 6 2 8 17 29 42 51 56 57 58 58 58 57 55 54 53
44 45 46 48 49 51 52 52 53 54 55 56 57 58 58 57 56 54 52 50 49 48 46 44 41 38 32 24 15 6 3 12 23 35 47 55 58 60 61 61 60 59 58
40 42 43 45 47 49 50 50 50 50 52 53 55 56 57 57 57 57 55 53 50 47 45 44 43 40 37 34 30 24 16 6 5 15 27 40 51 58 62 63 64 64 63
Wind_Direction
332 329 327 324 321 318 316 315 310 303 296 285 269 257 252 248 244 244 244 240 234 230 227 227 230 234 237 239 240 241 241 242 242 239 237 235 236 237 237 237 237 237 237
334 332 329 326 323 320 317 314 310 304 297 289 276 260 249 244 241 240 239 239 237 233 230 228 229 232 235 237 238 239 238 238 238 238 238 237 236 236 237 237 237 237 236
335 333 331 330 328 325 322 317 312 306 298 289 280 267 253 244 238 237 236 236 235 233 231 231 232 234 236 236 237 237 237 235 234 234 235 236 236 236 237 238 237 236 235
336 335 335 335 335 334 332 326 318 311 302 293 281 270 258 248 239 235 234 234 234 233 232 232 234 235 237 238 238 239 237 235 232 230 231 234 234 233 232 234 236 236 235
338 339 339 340 340 339 338 336 329 319 310 298 287 272 261 251 243 237 234 233 232 233 233 234 235 237 240 242 242 241 238 233 228 224 223 227 232 230 229 229 231 233 234
342 342 342 343 345 344 342 339 335 327 318 306 295 277 263 254 245 238 234 233 232 231 232 233 236 239 242 245 243 240 234 225 216 214 216 219 225 226 226 227 228 230 231
344 344 344 345 347 347 346 343 338 331 322 312 301 285 268 257 247 239 234 232 231 229 229 230 234 238 241 239 233 224 222 214 208 209 213 214 219 222 223 224 226 228 230
345 345 345 345 346 346 345 344 340 332 323 314 303 289 272 260 250 239 232 227 225 224 223 224 227 231 230 223 215 212 213 210 206 205 204 206 209 214 218 220 223 225 226
347 346 347 347 347 347 346 344 340 333 323 313 304 289 272 260 252 242 229 221 218 218 217 217 218 219 217 212 213 213 210 209 207 206 203 203 206 209 211 213 215 217 221
350 350 350 349 348 347 346 344 341 334 322 310 302 288 270 257 252 244 230 219 216 215 215 214 213 212 212 213 214 214 212 210 209 211 211 210 208 208 210 212 214 216 218
354 353 352 351 351 349 348 347 345 338 325 310 299 287 270 255 249 247 236 222 217 216 215 214 213 212 211 211 211 213 211 210 210 210 212 213 212 211 212 213 215 216 217
356 355 354 354 354 354 353 353 351 345 332 314 298 286 272 255 247 246 242 231 222 219 216 215 215 214 213 211 208 208 209 209 210 209 209 210 211 212 213 215 217 218 218
359 358 358 358 358 359 359 359 358 354 345 327 304 286 274 260 249 245 244 238 229 223 218 215 216 215 216 215 213 210 208 209 211 211 211 211 210 210 212 215 217 220 221
2 1 1 2 2 2 3 4 4 3 357 344 321 294 276 264 254 246 245 242 236 228 222 218 217 216 216 218 218 216 214 212 212 212 212 213 213 213 213 214 216 219 221
4 4 5 5 5 6 7 9 10 9 5 360 347 318 285 269 261 253 248 246 241 235 228 223 220 219 218 217 218 219 218 217 215 214 213 214 215 216 217 218 219 220 221
7 8 9 9 10 11 12 13 14 15 13 9 3 349 318 287 273 264 257 252 247 241 234 228 223 221 220 219 218 219 219 218 217 216 216 217 218 219 221 224 226 226 226
10 11 13 13 14 16 17 17 18 20 20 19 15 9 356 329 298 281 272 265 257 249 242 235 229 224 222 221 221 220 219 219 219 219 219 219 221 222 224 227 229 230 229
12 13 15 16 17 19 20 20 22 23 25 26 26 23 18 7 344 312 290 277 269 259 250 243 235 229 225 223 222 222 221 221 221 221 222 222 222 223 226 228 230 230 229
13 15 17 18 19 21 22 23 24 26 28 30 32 32 30 25 17 2 333 303 286 273 261 251 242 235 229 225 224 223 223 222 222 223 224 225 225 226 227 228 227 227 228
14 16 18 19 21 22 24 25 27 28 29 31 33 35 36 35 32 26 14 353 322 295 275 261 250 241 233 228 225 223 223 223 223 224 225 225 225 225 225 225 224 224 225
16 17 20 21 21 23 25 27 28 29 30 32 33 35 36 38 39 38 34 25 9 346 317 286 262 247 237 230 226 224 223 224 224 225 226 226 225 224 224 223 223 222 223
17 18 21 22 22 24 26 28 29 30 31 32 33 34 36 37 38 40 40 39 36 29 18 359 318 269 245 234 228 225 224 224 225 226 227 227 227 226 225 224 224 224 224
17 18 21 23 23 24 26 28 30 31 32 33 33 34 35 36 38 39 40 41 41 41 40 36 29 15 317 251 235 228 225 224 225 226 227 228 228 228 228 228 227 227 227
17 18 20 22 23 24 26 28 30 32 34 34 35 35 35 36 37 38 39 40 41 42 43 44 44 43 40 27 294 240 230 227 226 226 227 228 229 230 230 229 229 229 229
16 18 19 21 23 25 25 27 29 32 34 35 36 36 36 37 37 38 38 39 40 41 42 43 45 46 47 47 45 33 258 235 230 228 228 228 229 230 230 231 231 230 230
15 18 19 20 22 24 25 25 27 29 32 34 35 36 37 37 37 37 37 38 38 38 39 40 42 43 44 45 46 46 44 32 251 234 231 230 230 230 230 231 232 232 232
Height
5502 5491 5481 5472 5462 5452 5443 5434 5426 5419 5414 5411 5410 5412 5414 5415 5416 5418 5421 5425 5429 5435 5441 5448 5455 5462 5470 5478 5487 5497 5508 5519 5533 5546 5557 5570 5579 5587 5597 5606 5615 5624 5634
5494 5483 5472 5462 5451 5441 5431 5421 5413 5405 5399 5395 5394 5396 5399 5402 5405 5408 5411 5415 5419 5424 5430 5437 5443 5450 5456 5463 5470 5478 5489 5500 5513 5525 5536 5550 5562 5571 5580 5588 5598 5607 5617
5487 5475 5463 5452 5441 5429 5418 5408 5399 5392 5385 5381 5379 5379 5382 5386 5391 5396 5400 5405 5409 5414 5420 5426 5432 5438 5444 5450 5456 5463 5471 5481 5492 5505 5516 5529 5543 5554 5562 5569 5579 5590 5601
5479 5467 5455 5442 5430 5418 5406 5395 5386 5378 5372 5368 5365 5364 5365 5368 5375 5382 5388 5393 5398 5403 5409 5415 5421 5427 5433 5438 5443 5449 5456 5464 5475 5486 5497 5508 5521 5534 5544 5551 5561 5573 5584
5472 5459 5446 5434 5421 5409 5397 5385 5375 5367 5360 5356 5353 5351 5351 5353 5358 5366 5373 5379 5385 5390 5396 5402 5408 5414 5419 5425 5430 5435 5441 5450 5460 5471 5482 5491 5501 5514 5526 5535 5545 5555 5566
5464 5452 5439 5427 5414 5401 5389 5377 5367 5358 5350 5345 5341 5339 5338 5339 5343 5350 5358 5365 5371 5377 5383 5388 5394 5400 5405 5410 5414 5420 5426 5436 5447 5457 5467 5476 5486 5497 5509 5519 5529 5539 5551
5457 5445 5432 5420 5407 5394 5381 5369 5359 5349 5341 5336 5331 5329 5327 5326 5329 5335 5343 5351 5358 5364 5370 5375 5381 5386 5391 5396 5401 5407 5414 5424 5435 5445 5453 5462 5472 5483 5496 5507 5515 5522 5534
5451 5438 5426 5414 5400 5387 5374 5361 5350 5340 5331 5325 5321 5318 5317 5316 5317 5322 5330 5338 5345 5352 5358 5364 5370 5375 5380 5385 5391 5398 5405 5414 5424 5433 5442 5451 5461 5470 5481 5493 5500 5509 5519
5445 5433 5421 5408 5395 5380 5366 5353 5340 5329 5320 5314 5311 5308 5307 5305 5305 5308 5316 5325 5333 5339 5346 5353 5360 5365 5370 5376 5383 5389 5396 5403 5412 5422 5431 5442 5452 5462 5470 5479 5487 5494 5503
5441 5428 5416 5402 5388 5373 5358 5343 5329 5316 5307 5302 5300 5298 5297 5296 5295 5297 5303 5312 5320 5327 5335 5343 5350 5356 5362 5369 5375 5382 5388 5394 5402 5411 5420 5430 5440 5449 5458 5466 5475 5483 5491
5437 5424 5411 5397 5383 5367 5351 5333 5317 5303 5294 5289 5288 5287 5287 5287 5287 5287 5292 5300 5307 5315 5323 5331 5339 5346 5353 5360 5367 5374 5380 5386 5394 5402 5410 5420 5429 5438 5447 5455 5464 5472 5481
5435 5422 5408 5393 5378 5362 5345 5326 5307 5292 5283 5279 5277 5277 5278 5279 5279 5280 5283 5289 5296 5303 5311 5319 5327 5335 5343 5350 5357 5365 5372 5379 5386 5394 5402 5411 5419 5428 5437 5445 5453 5461 5469
5435 5421 5406 5390 5374 5358 5340 5321 5302 5286 5276 5271 5269 5269 5270 5271 5272 5273 5275 5279 5284 5290 5299 5308 5316 5324 5332 5340 5348 5355 5363 5371 5379 5386 5394 5402 5410 5418 5426 5435 5443 5450 5458
5435 5421 5406 5390 5373 5356 5338 5319 5300 5284 5273 5267 5264 5263 5263 5264 5265 5267 5269 5271 5275 5281 5288 5297 5306 5313 5321 5329 5337 5346 5354 5362 5370 5378 5386 5394 5402 5409 5417 5425 5433 5441 5448
5436 5422 5407 5391 5375 5358 5339 5320 5301 5284 5271 5265 5261 5259 5259 5259 5260 5262 5263 5266 5268 5273 5279 5287 5296 5304 5311 5319 5327 5335 5343 5352 5360 5368 5376 5384 5392 5400 5408 5415 5423 5431 5438
5439 5425 5411 5396 5380 5363 5345 5327 5307 5289 5275 5265 5260 5257 5256 5256 5257 5258 5259 5261 5263 5266 5271 5277 5284 5292 5300 5308 5316 5324 5332 5340 5349 5357 5366 5374 5382 5389 5397 5405 5412 5420 5427
5442 5428 5414 5399 5383 5367 5351 5335 5317 5300 5282 5270 5262 5258 5256 5255 5255 5256 5256 5257 5259 5261 5264 5269 5274 5281 5289 5297 5305 5314 5322 5329 5337 5346 5354 5362 5370 5378 5386 5393 5401 5408 5416
5445 5431 5417 5402 5386 5371 5356 5342 5326 5311 5295 5280 5270 5263 5259 5257 5255 5255 5255 5255 5256 5257 5259 5262 5266 5272 5279 5286 5294 5303 5311 5319 5327 5334 5342 5350 5358 5366 5374 5381 5388 5396 5403
5450 5436 5421 5406 5392 5378 5364 5351 5337 5322 5308 5294 5281 5272 5265 5261 5258 5256 5255 5254 5253 5253 5254 5256 5259 5263 5269 5276 5284 5292 5300 5308 5316 5324 5331 5338 5346 5353 5361 5368 5375 5383 5391
5453 5440 5426 5413 5400 5387 5374 5360 5347 5334 5321 5309 5296 5285 5276 5268 5263 5259 5256 5254 5252 5251 5250 5251 5253 5255 5259 5265 5273 5281 5289 5297 5305 5313 5320 5327 5334 5341 5348 5356 5364 5372 5380
5458 5445 5433 5420 5408 5396 5383 5370 5358 5346 5334 5322 5310 5300 5290 5281 5272 5266 5260 5256 5252 5250 5248 5248 5248 5250 5252 5255 5262 5269 5277 5286 5294 5302 5309 5317 5324 5331 5338 5346 5354 5362 5370
5463 5451 5439 5427 5416 5405 5393 5380 5368 5356 5345 5334 5323 5313 5303 5294 5285 5276 5269 5262 5256 5252 5249 5247 5246 5247 5248 5250 5253 5259 5266 5274 5282 5290 5298 5306 5314 5321 5328 5336 5344 5352 5360
5467 5457 5446 5435 5424 5414 5402 5391 5379 5368 5356 5345 5335 5325 5316 5307 5297 5289 5280 5273 5266 5259 5254 5250 5248 5247 5247 5248 5249 5252 5257 5263 5271 5278 5286 5294 5302 5310 5318 5326 5333 5341 5349
5473 5463 5453 5443 5433 5422 5412 5401 5390 5379 5368 5358 5347 5338 5328 5319 5310 5301 5293 5285 5278 5271 5265 5259 5254 5251 5249 5248 5248 5250 5252 5255 5260 5267 5274 5281 5289 5297 5305 5313 5321 5329 5336
5477 5468 5459 5450 5440 5430 5420 5410 5400 5390 5380 5370 5360 5351 5341 5332 5323 5314 5306 5298 5291 5284 5277 5270 5265 5260 5256 5252 5250 5250 5250 5251 5253 5257 5262 5269 5276 5283 5291 5299 5307 5315 5323
5482 5473 5465 5456 5447 5438 5428 5419 5410 5400 5390 5381 5372 5363 5354 5345 5336 5327 5319 5311 5303 5296 5289 5282 5276 5270 5265 5261 5257 5254 5251 5250 5250 5251 5253 5257 5262 5268 5275 5283 5291 5300 5308